Location: Gimli
(50.6330°N, 97.0000°W)
Time: 08:41:20
(UTC-06:00)

Envisat - Visible Passes

Search period start: 27 November 2020 00:00
Search period end: 07 December 2020 00:00
Orbit: 764 x 766 km, 98.1° (Epoch: 27 November)

Date Brightness Start Highest point End Pass type
(mag) Time Alt. Az. Time Alt. Az. Time Alt. Az.
27 Nov 5.8 05:10:08 10° NE 05:13:26 17° E 05:16:44 10° SE visible
27 Nov 2.9 06:47:58 10° NNE 06:53:04 78° WNW 06:58:09 10° SSW visible
27 Nov 4.6 18:07:54 10° SSW 18:12:36 37° W 18:17:19 10° NNW visible
28 Nov 3.8 06:11:13 10° NNE 06:16:13 54° E 06:21:11 10° S visible
28 Nov 3.3 17:30:34 10° S 17:35:38 74° WSW 17:40:45 10° NNW visible
28 Nov 6.3 19:13:52 10° WSW 19:15:34 11° W 19:17:16 10° WNW visible
29 Nov 5.1 05:34:49 10° NE 05:39:09 27° E 05:43:27 10° SSE visible
29 Nov 3.2 07:13:31 10° N 07:18:25 49° WNW 07:23:18 10° SW visible
29 Nov 5.5 18:34:14 10° SW 18:38:15 23° W 18:42:18 10° NW visible
30 Nov 6.1 04:59:17 10° NE 05:01:53 14° E 05:04:28 10° ESE visible
30 Nov 3.0 06:36:34 10° NNE 06:41:42 87° ESE 06:46:47 10° SSW visible
30 Nov 4.2 17:56:17 10° S 18:01:08 45° W 18:06:03 10° NNW visible
01 Dec 4.2 05:59:54 10° NNE 06:04:46 44° E 06:09:36 10° S visible
01 Dec 3.0 17:19:09 10° SSE 17:24:14 90° W 17:29:22 10° NNW visible
01 Dec 6.1 19:01:16 10° WSW 19:04:00 14° W 19:06:45 10° NW visible
02 Dec 5.4 05:23:40 10° NE 05:27:40 22° E 05:31:36 10° SE visible
02 Dec 3.0 07:02:03 10° N 07:07:04 59° WNW 07:12:03 10° SSW visible
02 Dec 5.1 18:22:24 10° SSW 18:26:45 28° W 18:31:08 10° NW visible
03 Dec 6.3 04:48:55 10° ENE 04:50:19 11° E 04:51:44 10° E visible
03 Dec 3.3 06:25:11 10° NNE 06:30:17 71° ESE 06:35:21 10° S visible
03 Dec 3.8 17:44:43 10° S 17:49:42 56° W 17:54:44 10° NNW visible
04 Dec 4.6 05:48:37 10° NNE 05:53:19 36° E 05:57:58 10° SSE visible
04 Dec 3.5 07:27:41 10° N 07:32:21 38° WNW 07:37:01 10° SW visible
04 Dec 3.0 17:07:47 10° SSE 17:12:51 75° ENE 17:17:57 10° NNW visible
04 Dec 5.8 18:49:04 10° SW 18:52:28 18° W 18:55:52 10° NW visible
05 Dec 5.7 05:12:37 10° NE 05:16:08 18° E 05:19:37 10° SE visible
05 Dec 2.9 06:50:37 10° N 06:55:43 73° WNW 07:00:46 10° SSW visible
05 Dec 4.8 18:10:39 10° SSW 18:15:16 35° W 18:19:55 10° NNW visible
06 Dec 3.6 06:13:50 10° NNE 06:18:52 58° E 06:23:52 10° S visible
06 Dec 3.4 17:33:13 10° S 17:38:17 69° WSW 17:43:23 10° NNW visible
06 Dec 6.3 19:17:14 10° W 19:18:16 11° W 19:19:19 10° WNW visible
